Location: Lane
(33.5226°N, 79.8788°W)
Time: 20:31:47
(UTC+00:00)

Courier 1B Rocket - Pass Details

Date: 10 October 2022
Orbit: 920 x 1202 km, 28.3° (Epoch: 01 December)

Event Time Altitude Azimuth Distance (km) Brightness Sun altitude
Rises 02:05:08 0° 270° (W) 3,779 8.8 -40.2°
Reaches altitude 10° 02:08:14 10° 260° (W) 2,778 7.9 -40.8°
Enters shadow 02:10:37 20° 245° (WSW) 2,118 7.0 -41.2°
Maximum altitude 02:13:55 30° 202° (SSW) 1,656 - -41.9°
Drops below altitude 10° 02:19:21 10° 143° (SE) 2,638 - -42.9°
Sets 02:22:13 0° 132° (SE) 3,559 - -43.4°
